Weather History for Fort Huachuca, AZ

Change the Weather History Date:

Sunday, November 11, 2012

  Actual Average (KFHU) Record (KFHU)
Temperature  
Mean Temperature 41 °F -  
Max Temperature 52 °F 66 °F 81 °F (1989)
Min Temperature 30 °F 45 °F 34 °F (2012)
Degree Days  
Heating Degree Days 24    
Moisture  
Dew Point 14 °F    
Average Humidity 39    
Maximum Humidity 69    
Minimum Humidity 16    
Precipitation  
Precipitation 0.00 in - - ()
Sea Level Pressure  
Sea Level Pressure 30.11 in    
Wind  
Wind Speed 6 mph (SSE)    
Max Wind Speed 10 mph    
Max Gust Speed 16 mph    
Averages and records for this station are not official NWS values.
T = Trace of Precipitation, MM = Missing Value Source: NWS Daily Summary

Daily Weather History Graph

Daily Weather History Graph

Search for Another Location

Airport:

Trip Planner

Search our weather history database for the weather conditions in past years. The results will help you decide how hot, cold, wet, or windy it might be!

Date:

Astronomy

Nov. 11, 2012 Rise Set
Actual Time 6:46 AM MST 5:24 PM MST
Civil Twilight 6:21 AM MST 5:50 PM MST
Nautical Twilight 5:51 AM MST 6:19 PM MST
Astronomical Twilight 5:23 AM MST 6:48 PM MST
Moon 4:12 AM MST (11/11) 3:44 PM MST (11/11)
Length of Visible Light 11h 29m
Length of Day
10h 37m
Waning Crescent, 7% of the Moon is Illuminated
Nov 11
Waning Crescent
Nov 13
New
Nov 20
First Quarter
Nov 28
Full
Dec 6
Last Quarter

Hourly Weather History & Observations

Time (MST) Temp. Windchill Dew Point Humidity Pressure Visibility Wind Dir Wind Speed Gust Speed Precip Events Conditions
12:56 AM 39.0 °F 34.8 °F 26.1 °F 60% 29.97 in - West 5.8 mph - N/A   Overcast
1:56 AM 36.0 °F 28.5 °F 25.0 °F 64% 29.99 in - WSW 10.4 mph - N/A   Partly Cloudy
2:56 AM 32.0 °F 25.6 °F 23.0 °F 69% 30.01 in - WSW 6.9 mph - N/A   Clear
3:56 AM 33.1 °F 26.9 °F 23.0 °F 66% 30.02 in - SW 6.9 mph - N/A   Clear
4:56 AM 30.9 °F 25.2 °F 21.9 °F 69% 30.04 in - SW 5.8 mph - N/A   Clear
5:56 AM 33.1 °F 28.7 °F 21.0 °F 61% 30.07 in - SSW 4.6 mph - N/A   Clear
6:56 AM 33.1 °F 30.0 °F 19.0 °F 56% 30.10 in - SSW 3.5 mph - N/A   Clear
7:56 AM 37.9 °F - 18.0 °F 45% 30.12 in - Calm Calm - N/A   Clear
8:56 AM 41.0 °F 38.0 °F 15.1 °F 35% 30.13 in - Variable 4.6 mph - N/A   Clear
9:56 AM 43.0 °F 38.8 °F 12.0 °F 28% 30.14 in - East 6.9 mph - N/A   Clear
10:56 AM 46.0 °F 42.5 °F 12.0 °F 25% 30.14 in - East 6.9 mph 16.1 mph N/A   Clear
11:56 AM 46.9 °F - 8.1 °F 21% 30.12 in - Calm Calm - N/A   Clear
12:56 PM 50.0 °F - 8.1 °F 18% 30.09 in - NNE 6.9 mph - N/A   Clear
1:56 PM 51.1 °F - 8.1 °F 18% 30.09 in - Calm Calm - N/A   Clear
2:56 PM 52.0 °F - 8.1 °F 17% 30.10 in - East 8.1 mph - N/A   Clear
3:56 PM 51.8 °F - 6.8 °F 16% 30.10 in - NNE 5.8 mph - N/A   Clear
6:56 PM 39.0 °F 36.8 °F 8.1 °F 28% 30.21 in - ESE 3.5 mph - N/A   Clear
7:56 PM 36.0 °F 28.5 °F 8.1 °F 31% 30.22 in - SE 10.4 mph - N/A   Clear
7:58 PM - - - N/A% - - North - - N/A   Unknown
8:56 PM 37.9 °F 30.9 °F 8.1 °F 29% 30.22 in - ESE 10.4 mph - N/A   Clear
9:56 PM 36.0 °F 30.3 °F 9.0 °F 33% 30.22 in - ESE 6.9 mph - N/A   Clear
10:56 PM 34.0 °F 26.0 °F 10.9 °F 38% 30.22 in - ESE 10.4 mph - N/A   Clear